OBJECT D, 44882

Orbit data source: Space-Track

You're viewing an Uncataloged Satellite

Recently launched and/or uncataloged satellites may have evolving metadata. Metadata may include but not limited to: Owner, Maufacturer, Bus, Motor, and Mission.

OBJECT D, 44882 is a satellite in SSO that was launched on Fri, 20 Dec 2019 UTC via a CHANG ZHENG 4B launch vehicle from the Taiyaun Space Center, China (TSC). Unknown objects in Earth's orbit typically refer to objects detected orbiting the Earth but have not yet been identified or cataloged. These objects could be anything from previously untracked satellites, spent rocket stages, debris from satellite collisions, or even natural meteoroids temporarily captured by Earth's gravity.

Loading next visibility...
Identifier
44882, 2019-093D
Orbit
SSO
Country
Flag of TBDTBD
Related business
None
Manufacturer
Unknown
Mission
Operational Commercial Communications
Bus & Motor
Unknown
Mass
Unknown
Launch date (UTC)
2019-12-20 (6 years ago)
Launch vehicle
CHANG ZHENG 4B
Launch site
Taiyaun Space Center, China (TSC)
Object type
Unknown
Shape & HBR
Box, Unknown HBR
Radar Cross Section
0.195 m², Large (>1 m²)

Expand to show TLE details & history
Last TLE update: 7 hours ago

TLE from 7 hours ago
0 OBJECT D
1 44882U 19093D   25311.30060354  .00011416  00000-0  88699-3 0  9997
2 44882  97.8064  39.5216 0016491  65.0346 295.2589 15.01373700319272
Epoch: 2025-11-07T07:12Z
TLE epoch observation values (Epoch: 2025-11-07T07:12:52.145Z)
Latitude
-0.00004°
Longitude
-115.44221°
Altitude
560.843 km
Speed
7.584 km/s
True Right ascension
02h 38m 05s
True Declination
0° 00' 00"
Sunlit
Object was in full shadow at epoch
Visualization orbit readout
Latitude
Unknown
Longitude
Unknown
Altitude
Unknown
Speed
Unknown
Apparent Right ascension
Unknown
Apparent Declination
Unknown
Sunlit
N/A
Visualization observer readout
Local Sidereal Time
10:09:56
Azimuth
Unknown
Elevation
Unknown
Doppler factor
Unknown
Orbital elements
Apogee altitude
571.109 km
Perigee altitude
548.226 km
Semi-major axis
6,937.805 km
Eccentricity
0.00165
Inclination
97.8064°
RAAN
39.5216°
Arg. of periapsis
65.0346°
True anomaly
295.08784°
Mean anomaly
295.2589°
Eccentric anomaly
295.17339°
Mean motion
3.75587 °/min
Orbital period
95.85 mins
BSTAR
0.00088699
Loading maneuver chart data...
Computing Atmospheric mass density...
Loading historical data...
Loading historical data...
Loading historical data...
Loading historical data...
Loading historical data...
Loading historical data...
Loading historical data...

Documentation

Showing up to 5 results
|